Location: Bartshausen
(51.8454°N, 9.8167°E)
Time: 10:57:32
(UTC+00:00)

Cosmos 2322 Rocket - Pass Details

Date: 08 November 2025
Orbit: 830 x 851 km, 71.0° (Epoch: 09 December)

Event Time Altitude Azimuth Distance (km) Brightness Sun altitude
Exits shadow 02:17:40 29° 54° (NE) 1,514 3.9 -38.2°
Drops below altitude 10° 02:20:32 10° 38° (NE) 2,481 5.2 -37.8°
Sets 02:23:04 0° 34° (NNE) 3,424 6.0 -37.5°
